Погода Петропавловск-Камч.

Хотите узнать прогноз погоды Петропавловск-Камч.? Тогда Вам сюда: Погода Петропавловск-Камч.

Поиск расширенной информации на нашем сайте:

Полезная информация:

Новости сайта



02.01.2020
Опубликован Долгосрочный прогноз погоды по городам России и ближнего зарубежья на январь 2020 года.
Карты: Прогноз на январь и февраль 2020 года, Сравнение прогнозируемой аномалии приземной температуры воздуха на январь 2020 года по разным моделям.




Погода Петропавловск-Камч. - сегодня

Время (UTC), дата Ветер
(°,м/с) 
Видим.   Явления Облачность Т
(°С)
Тd
(°С)
f(%) Тe
(°С)
Pmin
(гПа)
dP
(гПа)
Po
(мм)
O2
(г/м3)
Тmin Tmax R s Состояние
почвы
09 16.01.21 350 (С) 10 км  слаб. ливневой снег  10/8 600 м кучево-дожд., средняя 
[Cb cap|Ac und]
-8.2 -10.1 86 -11  1011.4  -1.2  756  315    -8     
12 16.01.21 340 (С) 20000 м  {ливн. осадки}  10/8 300 м средняя 
[Sc|Ac und]
-10.1 -12.1 85 -12  1011.1  -0.4  756  317           
15 16.01.21 тихо ()   20000 м    10/10 300 м 
[Sc]
-9.5 -11.4 86 -10  1009.9  -1.2  755  316           
18 16.01.21 тихо ()   10 км  слаб. ливневой снег  10/10 600 м кучево-дожд. 
[Cb cap]
-8.6 -10.5 86 -9  1008.6  -1.3  754  315           
21 16.01.21 130 (ЮВ) 10 км  слаб. ливневой снег  10/10 600 м кучево-дожд. 
[Cb cap]
-9 -10.9 86 -9  1006.2  -2.3  752  315  -10.5    0.4  59  неравномерный
сухой снег
100% 
00 17.01.21 360 (С) 1000 м  ливневой снег  10/10 600 м кучево-дожд. 
[Cb cap]
-6.8 -8.6 87 -6  1001.9  -4.3  749  310           
03 17.01.21 050 (СВ) 7-16{16}  1000 м  ливневой снег  10/10 600 м кучево-дожд. 
[Cb cap]
-2.4 -5.1 82 -7  994.5  -7.3  744  303           
06 17.01.21 060 (СВ) 7-15{20}  2000 м  слаб. ливневой снег  10/10 600 м кучево-дожд. 
[Cb cap]
-0.5 -3.9 78 -4  988.3  -6.1  739  299           
09 17.01.21 020 (С) 5-11{20}  2000 м  слаб. ливневой снег  10/10 600 м кучево-дожд. 
[Cb cap]
-0.8 -3.2 84 -4  983.6  -4.7  736  298    -0.1     
12 17.01.21 350 (С) 7-10{11}  1000 м  ливневой снег  10/10 600 м кучево-дожд. 
[Cb cap]
-4.7 -6.2 89 -10  980.4  -3.2  733  301           
15 17.01.21 360 (С) 7-11{13}  1000 м  ливневой снег  10/10 600 м кучево-дожд. 
[Cb cap]
-6.9 -8.6 88 -12  978.6  -1.8  732  303           
18 17.01.21 300 (СЗ) 14-16{18}  20000 м  слаб. ливневой снег  10/10 600 м кучево-дожд. 
[Cb cap]
-6.2 -9.2 79 -14  978.6  732  303           
21 17.01.21 330 (СЗ) 12-16{21}  4000 м  слаб. ливневой снег  10/10 600 м кучево-дожд. 
[Cb cap]
-5.3 -9.5 72 -12  978.8  0.2  732  302  -7    14  77  неравномерный
сухой снег
100% 
00 18.01.21 320 (СЗ) 12-15{18}  20000 м  позёмок{ливн. осадки}  10/10 600 м кучево-дожд. 
[Cb cap]
-4.4 -8.5 73 -11  978.2  -0.6  731  300           
03 18.01.21 300 (СЗ) 19-25{25}  20000 м  метель  10/10 600 м кучево-дожд. 
[Cb cap]
-3.4 -9.7 62 -11  977.4  -0.8  731  299           
06 18.01.21 300 (СЗ) 18-25{26}  20000 м  позёмок  10/10 600 м 
[Sc]
-3.4 -10.2 59 -11  978.4  732  299           
09 18.01.21 300 (СЗ) 14-18{25}  20000 м  позёмок  10/10 600 м 
[Sc]
-2.9 -9.1 62 -10  979.3  0.8  732  299    -2.9  0.4     
12 18.01.21 310 (СЗ) 13-16{20}  20000 м  позёмок  9/9 600 м 
[Sc]
-2.4 -8.8 61 -9  980.1  0.8  733  299           
15 18.01.21 300 (СЗ) 16-21{23}  10 км  позёмок  10/10 600 м 
[Sc]
-2.9 -10.6 55 -10  982  1.9  734  300           
18 18.01.21 290 (З) 16-20{21}  20000 м  позёмок  9/9 600 м 
[Sc]
-4 -11.1 58 -11  984.1  2.1  736  302           
21 18.01.21 300 (СЗ) 16-21{23}  20000 м  позёмок  10/6 600 м средняя, верхняя 
[Sc|Ac trans|Ci fib]
-4.4 -12.4 54 -12  985.4  1.3  737  303  -4.4      73  неравномерный
мокрый или
старый снег
100% 
00 19.01.21 300 (СЗ) 15-20{23}  20000 м  позёмок  10/5 600 м средняя 
[Sc|Ac As]
-4.6 -13.2 51 -12  987.4  738  304  -4.7         
03 19.01.21 300 (СЗ) 17-22{22}  20000 м  позёмок  10/8 600 м средняя 
[Sc|Ac As]
-4.9 -13.1 53 -13  988  0.6  739  304           
06 19.01.21 300 (СЗ) 17-21{22}  20000 м  позёмок  10/6 600 м средняя 
[Sc|Ac trans]
-5.5 -13.9 52 -14  988.8  0.8  739  305           
09 19.01.21 300 (СЗ) 15-19{22}  20000 м  позёмок  10/8 600 м средняя 
[Sc|Ac trans]
-6.4 -13.8 56 -14  989.8  1.1  740  307    -4.4       
Время (UTC), дата Ветер
(°,м/с) 
Видим.   Явления Облачность Т
(°С)
Тd
(°С)
f(%) Тe
(°С)
Pmin
(гПа)
dP
(гПа)
Po
(мм)
O2
(г/м3)
Тmin Tmax R s Состояние
почвы

Для получения пояснительной информации подведите курсор к названию столбца.

ПОГОДА Петропавловск-Камч. - архив

Всё, что Вы хотите узнать о погоде Петропавловск-Камч. - удобно и подробно!

Выберите нужную дату (начиная с 1 января 2019* года) и нажмите кнопку "Найти".
Будут отображены архивные сводки погоды по пункту Петропавловск-Камч., начиная с указанной даты.


Отображать данные в формате CSV (для использования в таблицах Excel)


Внимание! Наш архив погоды предназначен исключительно для личного некоммерческого использования в познавательных целях. Если Вам необходимы официальные справки о состоянии погоды (для производственных, юридических, коммерческих и т.п. целей), обращайтесь в органы Росгидромета.

*Примечание: данная дата относится к архиву по метеостанциям СССР (Россия, СНГ, Балтия).
Архив по метеостанциям Зарубежной Европы и Азии (кроме Китая) хранится 10 дней, по другим регионам земного шара (Китай, Африка, Америка, Австралия, Океания) - 1 день.

Петропавловск-Камч. - район местоположения метеостанции


Название, широта, долгота, высота метеостанции:
Петропавловск-Камч. (обсерватория) 53°ш. 158.6°д. 24 м над ур. моря [Российская Федерация]

Дополнительная информация

В oтличие oт бoльшинства пoгoдных сайтoв мы публикуем пoдрoбную метеoинфoрмацию в детальнoм прoфессиoнальнoм фoрмате.

Характеристики температуры и влажнoсти вoздуха измеряются на высoте 2 м в тени вдали oт зданий и деревьев.
Скoрoсть ветра измеряется на высoте 10 м (на урoвне рoста челoвека скoрoсть ветра ниже в 1.5-2 раза). Если метеoстанция нахoдится в гoрoде или в лесу, тo скoрoсть ветра занижена на 2-4 м/с пo сравнению с oткрытым местoм. Скoрoсть ветра над акватoриями крупных рек и oзёр, а также на вершинах хoлмoв на 2-5 м/с выше, чем в oбычных услoвиях.
Атмoсфернoе давление в разных тoчках местнoсти мoжет значительнo oтличаться oт давления на метеoстанции, в зависимoсти oт услoвий рельефа (при пoдъёме на 10 м давление пoнижается примернo на 1 мм рт.ст.).